sat.trackr.live / text

‹ back to catalog

STARLINK-3341

NORAD 50817 · 2022-001Q

PAYLOAD ACTIVE UNKNOWN

§ Identity

Operator
Country
US
Launch date
2022-01-06
Launch site
AFETR
Launch vehicle
Mass (kg)
RCS (m²)

Purposes: comms

External: N2YO · Heavens-Above · Gunter

§ Orbital elements

Epoch: 2026-05-24T13:24:27.439488Z

Period
95.44 min
Inclination
53.2140°
Eccentricity
0.0001159
Mean motion
15.08833187 rev/d
Perigee alt
539.0 km
Apogee alt
540.6 km
Semi-major
6,917.9 km
B*
1.2451e-5
RAAN
188.5315°
Arg perigee
78.1206°
Mean anomaly
281.9916°
Rev number
24,186

§ Raw data

STARLINK-33411 50817U 22001Q   26144.55865092 -.00000090  00000+0  12451-4 0  99992 50817  53.2140 188.5315 0001159  78.1206 281.9916 15.08833187241860

JSON: /api/v1/satellites/50817 · /tle

For live sub-satellite position, see the globe view (requires WebGL).

§ Visibility from observer

Set your observer location to see the next 7 days of passes ≥ 10°. The values pass through the URL so the page stays shareable.

No JS? Fill the form by hand. The geolocation button needs JavaScript.